Indianapolis, IN

6:57 AM EDT on April 26, 2017 (GMT -0400)
Indianapolis International

Weather History for KIND - November, 2011

Change the Weather History Date:

Tuesday, November 1, 2011

  Actual Average Record
Temperature  
Mean Temperature 51 °F 50 °F  
Max Temperature 68 °F 59 °F 81 °F (1950)
Min Temperature 34 °F 40 °F 24 °F (1949)
Degree Days  
Heating Degree Days 14 15  
Month to date heating degree days 14 15  
Since 1 July heating degree days 393 416  
Cooling Degree Days 0 0  
Month to date cooling degree days 0 0  
Year to date cooling degree days 1451 1065  
Growing Degree Days 2 (Base 50)    
Moisture  
Dew Point 35 °F    
Average Humidity 62    
Maximum Humidity 92    
Minimum Humidity 32    
Precipitation  
Precipitation 0.00 in 0.12 in 1.95 in (1892)
Month to date precipitation 0.00 0.12  
Year to date precipitation 39.66 35.69  
Snow  
Snow 0.00 in 0.00 in 0.40 in (1954)
Month to date snowfall 0.0 0.0  
Since 1 July snowfall 0.0 0.4  
Since 1 September snowfall 0.0 0.4  
Snow Depth 0.00 in    
Sea Level Pressure  
Sea Level Pressure 30.19 in    
Wind  
Wind Speed 8 mph (South)    
Max Wind Speed 16 mph    
Max Gust Speed 20 mph    
Visibility 10 miles    
Events      
T = Trace of Precipitation, MM = Missing Value Source: NWS Daily Summary

Daily Weather History Graph

Daily Weather History Graph

Search for Another Location

Airport or City:

Trip Planner

Search our weather history database for the weather conditions in past years. The results will help you decide how hot, cold, wet, or windy it might be!

Date:

Astronomy

Nov. 01, 2011 Rise Set
Actual Time 8:13 AM EDT 6:43 PM EDT
Civil Twilight 7:45 AM EDT 7:11 PM EDT
Nautical Twilight 7:13 AM EDT 7:43 PM EDT
Astronomical Twilight 6:42 AM EDT 8:14 PM EDT
Moon 1:59 PM EDT (11/1) No Moon Set
Length of Visible Light 11h 25m
Length of Day
10h 30m
Waxing Crescent, 39% of the Moon is Illuminated
Nov 1
Waxing Crescent
Nov 2
First Quarter
Nov 10
Full
Nov 18
Last Quarter
Nov 25
New

Hourly Weather History & Observations

Time (EDT) Temp. Windchill Dew Point Humidity Pressure Visibility Wind Dir Wind Speed Gust Speed Precip Events Conditions
12:54 AM 41.0 °F - 32.0 °F 70% 30.18 in 10.0 mi Calm Calm - N/A   Clear
1:54 AM 37.0 °F 32.4 °F 32.0 °F 82% 30.19 in 8.0 mi WSW 5.8 mph - N/A   Clear
2:54 AM 37.0 °F 34.5 °F 32.0 °F 82% 30.19 in 10.0 mi SSW 3.5 mph - N/A   Clear
3:54 AM 37.9 °F 34.4 °F 32.0 °F 79% 30.19 in 9.0 mi SW 4.6 mph - N/A   Clear
4:54 AM 37.0 °F - 32.0 °F 82% 30.19 in 10.0 mi Calm Calm - N/A   Clear
5:54 AM 35.1 °F 32.2 °F 30.0 °F 82% 30.20 in 10.0 mi SW 3.5 mph - N/A   Clear
6:54 AM 36.0 °F - 32.0 °F 86% 30.22 in 10.0 mi Calm Calm - N/A   Clear
7:54 AM 35.1 °F 30.1 °F 30.9 °F 85% 30.23 in 8.0 mi SE 5.8 mph - N/A   Partly Cloudy
8:54 AM 35.6 °F 32.8 °F 33.8 °F 93% 30.23 in 9.0 mi SSE 3.5 mph - N/A   Partly Cloudy
9:54 AM 44.6 °F 42.2 °F 35.6 °F 71% 30.24 in 10.0 mi South 4.6 mph - N/A   Partly Cloudy
10:54 AM 48.2 °F - 37.4 °F 66% 30.25 in 10.0 mi South 9.2 mph - N/A   Partly Cloudy
11:54 AM 55.0 °F - 37.0 °F 51% 30.25 in 10.0 mi South 10.4 mph - N/A   Partly Cloudy
12:54 PM 60.1 °F - 36.0 °F 41% 30.22 in 10.0 mi South 9.2 mph - N/A   Partly Cloudy
1:54 PM 63.0 °F - 36.0 °F 37% 30.19 in 10.0 mi South 11.5 mph 18.4 mph N/A   Partly Cloudy
2:54 PM 66.2 °F - 37.4 °F 35% 30.17 in 10.0 mi SSW 8.1 mph - N/A   Partly Cloudy
3:54 PM 68.0 °F - 37.9 °F 33% 30.16 in 10.0 mi South 13.8 mph - N/A   Partly Cloudy
4:54 PM 66.9 °F - 37.0 °F 33% 30.16 in 10.0 mi South 15.0 mph - N/A   Partly Cloudy
5:54 PM 64.9 °F - 37.9 °F 37% 30.16 in 10.0 mi South 12.7 mph - N/A   Clear
6:54 PM 60.1 °F - 37.9 °F 44% 30.16 in 10.0 mi South 8.1 mph - N/A   Clear
7:54 PM 57.2 °F - 37.4 °F 48% 30.16 in 10.0 mi South 8.1 mph - N/A   Clear
8:54 PM 57.0 °F - 36.0 °F 45% 30.17 in 10.0 mi SSE 9.2 mph - N/A   Clear
9:54 PM 55.9 °F - 36.0 °F 47% 30.17 in 10.0 mi South 9.2 mph - N/A   Clear
10:54 PM 54.0 °F - 36.0 °F 51% 30.18 in 10.0 mi South 10.4 mph - N/A   Clear
11:54 PM 53.6 °F - 35.6 °F 51% 30.17 in 10.0 mi South 10.4 mph - N/A   Clear